March AFB, CA

4:40 AM PST on December 08, 2016 (GMT -0800)
March Air Reserve Base

Weather History for KRIV - March, 2014

Change the Weather History Date:

Friday, March 14, 2014

  Actual Average Record
Temperature  
Mean Temperature 58 °F -  
Max Temperature 75 °F 69 °F 90 °F (2013)
Min Temperature 41 °F 42 °F 35 °F (2002)
Degree Days  
Heating Degree Days 7    
Growing Degree Days 8 (Base 50)    
Moisture  
Dew Point 45 °F    
Average Humidity 67    
Maximum Humidity 93    
Minimum Humidity 31    
Precipitation  
Precipitation 0.00 in - - ()
Sea Level Pressure  
Sea Level Pressure 30.06 in    
Wind  
Wind Speed 4 mph (WNW)    
Max Wind Speed 12 mph    
Max Gust Speed -    
Visibility 10 miles    
Events      
Averages and records for this station are not official NWS values.
T = Trace of Precipitation, MM = Missing Value Source: NWS Daily Summary

Daily Weather History Graph

Daily Weather History Graph

Search for Another Location

Airport or City:

Trip Planner

Search our weather history database for the weather conditions in past years. The results will help you decide how hot, cold, wet, or windy it might be!

Date:

Astronomy

Mar. 14, 2014 Rise Set
Actual Time 7:00 AM PDT 6:56 PM PDT
Civil Twilight 6:35 AM PDT 7:20 PM PDT
Nautical Twilight 6:06 AM PDT 7:49 PM PDT
Astronomical Twilight 5:37 AM PDT 8:19 PM PDT
Moon 5:25 PM PDT (3/14) 5:39 AM PDT (3/14)
Length of Visible Light 12h 45m
Length of Day
11h 55m
Waxing Gibbous, 96% of the Moon is Illuminated
Mar 14
Waxing Gibbous
Mar 16
Full
Mar 23
Last Quarter
Mar 30
New
Apr 7
First Quarter

Hourly Weather History & Observations

Time (PDT) Temp. Windchill Dew Point Humidity Pressure Visibility Wind Dir Wind Speed Gust Speed Precip Events Conditions
12:58 AM 49.8 °F - 45.5 °F 85% 30.02 in 10.0 mi ESE 4.6 mph - N/A   Clear
1:58 AM 47.1 °F - 44.8 °F 92% 30.02 in 10.0 mi Calm Calm - N/A   Clear
2:58 AM 45.1 °F - 43.0 °F 92% 30.01 in 10.0 mi Calm Calm - N/A   Clear
3:58 AM 45.5 °F - 43.0 °F 91% 30.01 in 10.0 mi East 1.2 mph - N/A   Clear
4:58 AM 44.2 °F - 42.3 °F 93% 30.01 in 10.0 mi Calm Calm - N/A   Clear
5:58 AM 43.2 °F 41.5 °F 41.0 °F 92% 30.02 in 10.0 mi North 3.5 mph - N/A   Clear
6:58 AM 41.9 °F - 40.1 °F 93% 30.05 in 7.0 mi Calm Calm - N/A   Clear
7:58 AM 47.8 °F - 44.8 °F 89% 30.08 in 10.0 mi ENE 2.3 mph - N/A   Clear
8:58 AM 51.3 °F - 46.0 °F 82% 30.09 in 10.0 mi ESE 4.6 mph - N/A   Clear
9:58 AM 56.7 °F - 47.5 °F 71% 30.09 in 10.0 mi South 4.6 mph - N/A   Clear
10:58 AM 62.1 °F - 44.8 °F 53% 30.08 in 10.0 mi South 3.5 mph - N/A   Clear
11:58 AM 66.9 °F - 42.6 °F 41% 30.08 in 10.0 mi Calm Calm - N/A   Clear
12:58 PM 71.4 °F - 46.4 °F 41% 30.06 in 10.0 mi WNW 8.1 mph - N/A   Clear
1:58 PM 72.7 °F - 43.7 °F 35% 30.05 in 10.0 mi WNW 11.5 mph - N/A   Clear
2:58 PM 75.0 °F - 44.4 °F 34% 30.03 in 10.0 mi West 10.4 mph - N/A   Clear
3:58 PM 75.0 °F - 44.2 °F 33% 30.03 in 10.0 mi West 10.4 mph - N/A   Clear
4:58 PM 73.9 °F - 41.7 °F 31% 30.03 in 10.0 mi WNW 11.5 mph - N/A   Clear
5:58 PM 71.6 °F - 44.4 °F 38% 30.03 in 10.0 mi NW 10.4 mph - N/A   Clear
6:58 PM 66.7 °F - 47.5 °F 50% 30.06 in 10.0 mi NW 10.4 mph - N/A   Clear
7:58 PM 61.5 °F - 48.6 °F 62% 30.07 in 10.0 mi WNW 4.6 mph - N/A   Clear
8:58 PM 60.8 °F - 48.6 °F 64% 30.09 in 10.0 mi Calm Calm - N/A   Clear
9:58 PM 58.1 °F - 50.7 °F 76% 30.11 in 10.0 mi South 3.5 mph - N/A   Clear
10:58 PM 55.0 °F - 48.6 °F 79% 30.12 in 10.0 mi Calm Calm - N/A   Clear
11:58 PM 51.6 °F - 47.5 °F 86% 30.12 in 10.0 mi Calm Calm - N/A   Clear